Regional Weather Roundup
Issued by NWS

Home | Current Version | Previous Version | Text Only | Print | Product List | Glossary On
Versions: 1 2 3 4 5 6 7 8 9 10 11 12 13 14 15 16 17 18 19 20 21 22 23 24 25 26 27
000
ASCA42 TJSJ 230210
RWRPR
PUERTO RICO/U.S. VIRGIN ISLANDS HOURLY WEATHER ROUNDUP
NATIONAL WEATHER SERVICE SAN JUAN PR
1000 PM AST TUE AUG 22 2017

PRZ001>002-007>008-010-230300-
PUERTO RICO

CITY           SKY/WX    TMP DP  RH WIND       PRES   REMARKS
SAN JUAN LMM   PTCLDY    82  75  78 E10       29.99R
AGUADILLA      PTCLDY    79  75  89 SE5       30.00R
CEIBA          MOCLDY    82  77  83 NE7       30.00R HX  91
$$

VIZ001>002-230300-
U.S. VIRGIN ISLANDS

CITY           SKY/WX    TMP DP  RH WIND       PRES   REMARKS
CHARLOTTE AMA  PTCLDY    82  75  78 E9        29.97S
CHRISTIANSTED  CLEAR     81  75  83 NE5       29.98R
$$

HOURLY WEATHER ROUNDUP FOR THE NEWS MEDIA

CITY           SKY/WX    TMP DP  RH WIND       PRES   REMARKS
ORLANDO        CLEAR     82  76  81 NE8       30.01S
NEW YORK       MOCLDY    78  75  90 S16       29.78F
NEWARK         MOCLDY    83  70  64 S13G23    29.75F
CHICAGO        PTCLDY    71  49  45 NW10      29.98R
HARTFORD       CLOUDY    74  71  91 SW17G30   29.79F
BOSTON         CLOUDY    76  71  85 S16       29.72F
DALLAS         PTCLDY    90  69  50 SE12      29.95S HX  94
PHILADELPHIA   MOCLDY    83  72  69 S13       29.78F
LOS ANGELES    PTCLDY    70  65  84 SW14      29.93S
WASHINGTON DC  MOCLDY    82  73  74 S15       29.82R



USA.gov is the U.S. government's official web portal to all federal, state and local government web resources and services.